Terminal Aerodrome Forecast
Issued by NWS

Home | Current Version | Previous Version | Text Only | Print | Product List | Glossary On
Versions: 1 2 3 4 5 6 7 8 9 10 11 12 13 14 15 16 17
000
FTUS46 KSGX 230520
TAFSNA
TAF
KSNA 230520Z 2306/2406 18006KT P6SM OVC009
     FM231200 VRB04KT 3SM BR OVC007
     FM231700 VRB04KT P6SM BKN010
     FM231900 21010KT P6SM FEW012
     FM240400 VRB04KT P6SM OVC008=

USA.gov is the U.S. government's official web portal to all federal, state and local government web resources and services.